EW0407 Weather Reports


time (UTC)temp
C
wind
direction
speed
KPH
gust
KPH
rain 1hr
cm
rain 24hr
cm
rain mn
cm
humidity
%
barometer
mb
20260504110654 16 330 14.5 25.7 0.00 0.00 0.00 35 1022.9
20260504100253 16 21 12.9 25.7 0.00 0.00 0.00 38 1023.4
20260504081614 14 283 11.3 17.7 0.00 0.00 0.00 47 1023.7
20260504080450 15 0 11.3 17.7 0.00 0.00 0.00 47 1023.6
20260504050412 11 310 3.2 4.8 0.00 0.08 0.00 68 1023.3
20260504045333 10 12 1.6 9.7 0.00 0.08 0.00 70 1023.0
20260504044357 10 36 1.6 4.8 0.00 0.13 0.00 71 1022.9
20260504043317 10 0.0 0.0 0.00 0.15 0.00 72 1023.0
20260504042341 10 4 0.0 4.8 0.00 0.25 0.00 73 1023.1
20260504041405 9 344 4.8 8.0 0.00 0.41 0.00 73 1023.1
20260504040324 9 357 4.8 8.0 0.00 0.43 0.00 73 1023.3
20260504035201 9 6 1.6 4.8 0.00 0.46 0.00 73 1022.9
20260504034204 9 12 1.6 3.2 0.00 0.46 0.00 73 1023.0
20260504033125 8 6 1.6 4.8 0.00 0.46 0.00 73 1022.7
20260504031941 9 358 3.2 8.0 0.00 0.46 0.00 72 1022.9
20260504031005 9 2 3.2 8.0 0.00 0.46 0.00 72 1022.8
20260504025925 8 33 3.2 8.0 0.00 0.46 0.00 72 1022.8
20260504024741 9 4 6.4 8.0 0.00 0.46 0.00 71 1022.9
20260504023805 9 6 8.0 9.7 0.00 0.46 0.00 71 1022.9
20260504022725 8 0 3.2 9.7 0.00 0.46 0.00 73 1022.8
20260504021645 7 0.0 0.0 0.00 0.46 0.00 78 1022.9
20260504020708 7 337 1.6 3.2 0.00 0.46 0.00 79 1023.0
20260504015629 6 0.0 0.0 0.00 0.46 0.00 81 1023.2
20260504014653 6 0.0 1.6 0.00 0.46 0.00 80 1023.2
20260504013613 6 0.0 0.0 0.00 0.46 0.00 79 1023.1
20260504012429 7 0.0 1.6 0.00 0.46 0.00 78 1023.1
20260504011452 7 338 0.0 3.2 0.00 0.46 0.00 77 1023.2
20260504010413 7 53 0.0 1.6 0.00 0.46 0.00 77 1023.1
20260504005229 7 78 3.2 3.2 0.00 0.46 0.00 78 1022.8
20260504004313 7 80 0.0 3.2 0.00 0.46 0.00 77 1022.9
20260504003233 7 0.0 0.0 0.00 0.46 0.00 76 1023.1
20260504002028 7 88 0.0 3.2 0.00 0.46 0.00 75 1022.9
20260504001053 7 0.0 0.0 0.00 0.46 0.00 75 1023.0
20260504000013 7 0.0 0.0 0.00 0.46 0.00 77 1022.8
20260503234829 7 0.0 0.0 0.00 0.46 0.00 77 1022.9
20260503233853 7 0.0 1.6 0.00 0.46 0.00 77 1022.9
20260503232813 7 0.0 1.6 0.00 0.46 0.00 77 1022.9
20260503231629 7 0.0 0.0 0.00 0.46 0.00 76 1023.1
20260503230653 7 86 1.6 3.2 0.00 0.46 0.00 75 1022.9
20260503225633 7 85 0.0 1.6 0.00 0.46 0.00 75 1022.9
20260503224449 8 0.0 1.6 0.00 0.46 0.00 73 1022.9
20260503223513 8 0.0 1.6 0.00 0.46 0.00 71 1023.0
20260503222413 8 239 0.0 3.2 0.00 0.46 0.00 70 1022.8
20260503221228 8 280 1.6 3.2 0.00 0.46 0.00 69 1022.9
20260503220253 9 0.0 1.6 0.00 0.46 0.00 68 1023.0
20260503215212 9 226 3.2 3.2 0.00 0.46 0.00 67 1022.9
20260503214049 9 269 1.6 4.8 0.00 0.46 0.00 68 1022.8
20260503213053 9 311 4.8 8.0 0.00 0.51 0.00 68 1022.7
20260503212013 9 292 4.8 4.8 0.00 0.51 0.00 68 1022.8
20260503211037 9 300 3.2 8.0 0.00 0.51 0.00 67 1022.8
20260503210101 9 341 1.6 3.2 0.00 0.51 0.00 66 1022.9
20260503205029 9 281 9.7 12.9 0.00 0.51 0.51 66 1023.0
20260503204053 10 285 8.0 11.3 0.00 0.51 0.51 65 1023.0
20260503203033 10 268 8.0 12.9 0.00 0.51 0.51 65 1023.1
20260503201849 10 279 6.4 12.9 0.00 0.51 0.51 64 1022.8
20260503200852 10 292 3.2 8.0 0.00 0.51 0.51 65 1023.0
20260503195833 10 297 9.7 11.3 0.00 0.51 0.51 65 1023.0
20260503194629 10 299 8.0 11.3 0.00 0.51 0.51 65 1023.1
20260503193653 10 300 4.8 9.7 0.00 0.51 0.51 65 1022.8
20260503192613 10 285 4.8 4.8 0.00 0.51 0.51 65 1022.8
20260503191429 10 304 4.8 12.9 0.00 0.51 0.51 65 1022.8
20260503190453 10 285 8.0 12.9 0.00 0.51 0.51 66 1022.6
20260503185413 10 328 3.2 8.0 0.00 0.51 0.51 66 1022.4
20260503184229 10 273 6.4 8.0 0.00 0.51 0.51 67 1022.4
20260503183253 10 312 4.8 4.8 0.00 0.51 0.51 67 1022.2
20260503182253 10 300 3.2 8.0 0.00 0.51 0.51 67 1022.0
20260503181109 10 298 4.8 8.0 0.00 0.51 0.51 67 1021.9
20260503180133 10 301 8.0 9.7 0.00 0.51 0.51 67 1021.6
20260503175013 10 293 9.7 12.9 0.00 0.51 0.51 66 1021.3
20260503173829 10 292 9.7 12.9 0.00 0.51 0.51 66 1021.6
20260503172853 10 324 14.5 17.7 0.00 0.51 0.51 65 1021.2
20260503171813 10 335 9.7 16.1 0.00 0.51 0.51 63 1021.4
20260503170629 11 334 11.3 20.9 0.00 0.51 0.51 60 1021.1
20260503151013 12 314 16.1 20.9 0.00 0.51 0.51 52 1020.3
20260503131253 12 21 6.4 25.7 0.00 0.51 0.51 61 1020.2
20260503130213 12 337 24.1 32.2 0.00 0.51 0.51 60 1020.2